User: anonymous   Login
Location: Harbor Island
(32.3990°N, 80.4435°W)
Time: 21:16:33
(UTC-05:00)
Language:

Cosmos 1455 - Orbit

View from above orbital plane
View from above orbital plane
View from above satellite
View from above satellite

Ground track
Ground track

The orbit data is extracted from the following two-line orbital elements,

1 14032U 83037A   14323.88961520  .00009366  00000-0  53653-3 0  6865
2 14032 082.5160 293.4411 0017332 302.0296 117.7134 15.12358880718973
Epoch (UTC): 19 November 2014 21:21:02
Eccentricity: 0.0017332
inclination: 82.5160°
perigee height: 517 km
apogee height: 541 km
right ascension of ascending node: 293.4411°
argument of perigee: 302.0296°
revolutions per day: 15.12358880
mean anomaly at epoch: 117.7134°
orbit number at epoch: 71897

The dashed part of the orbit path shows where the satellite is in the earth's shadow,  

DLR